GW4463 Weather Reports


Display with metric or nautical units.
time (UTC)temp
F
wind
direction
speed
MPH
gust
MPH
rain 1hr
in
rain 24hr
in
rain mn
in
humidity
%
barometer
mb
20260506013357 41 90 2.0 2.0 0.00 0.00 0.00 86 1017.8
20260506012837 41 90 1.0 1.0 0.00 0.00 0.00 86 1017.8
20260506012317 42 68 0.0 0.0 0.00 0.00 0.00 86 1018.0
20260506011525 42 90 3.0 4.0 0.00 0.00 0.00 85 1017.9
20260506010731 42 112 5.0 5.0 0.00 0.00 0.00 86 1017.9
20260506010211 42 68 2.0 2.0 0.00 0.00 0.00 87 1017.9
20260506005652 42 90 3.0 3.0 0.00 0.00 0.00 87 1017.9
20260506005133 42 112 4.0 5.0 0.00 0.00 0.00 88 1017.8
20260506004613 42 68 3.0 3.0 0.00 0.00 0.00 87 1017.8
20260506004054 42 68 2.0 2.0 0.00 0.00 0.00 87 1017.9
20260506003534 43 68 3.0 3.0 0.00 0.00 0.00 87 1017.9
20260506002741 43 112 3.0 3.0 0.00 0.00 0.00 87 1017.9
20260506001948 43 112 3.0 4.0 0.00 0.00 0.00 87 1017.9
20260506001429 43 112 5.0 5.0 0.00 0.00 0.00 86 1017.9
20260506000909 44 112 4.0 4.0 0.00 0.00 0.00 87 1017.9
20260506000116 44 112 2.0 2.0 0.00 0.00 0.00 87 1017.9
20260505235556 44 90 3.0 3.0 0.00 0.00 0.00 86 1017.9
20260505235037 44 135 2.0 2.0 0.00 0.00 0.00 86 1018.0
20260505234518 44 90 2.0 2.0 0.00 0.00 0.00 86 1018.0
20260505233958 44 112 2.0 2.0 0.00 0.00 0.00 85 1017.9
20260505233204 44 112 2.0 2.0 0.00 0.00 0.00 85 1017.9
20260505232645 44 112 5.0 5.0 0.00 0.00 0.00 85 1017.9
20260505232126 44 112 1.0 1.0 0.00 0.00 0.00 84 1017.9
20260505231606 44 68 2.0 2.0 0.00 0.00 0.00 84 1017.9
20260505231047 44 112 5.0 5.0 0.00 0.00 0.00 84 1018.0
20260505230528 44 90 4.0 5.0 0.00 0.00 0.00 83 1018.0
20260505230008 44 90 3.0 5.0 0.00 0.00 0.00 83 1018.0
20260505225449 44 112 4.0 5.0 0.00 0.00 0.00 84 1018.0
20260505224422 45 112 5.0 5.0 0.00 0.00 0.00 83 1018.1
20260505223628 45 112 3.0 3.0 0.00 0.00 0.00 82 1018.1
20260505223109 45 68 4.0 5.0 0.00 0.00 0.00 83 1018.1
20260505222550 45 112 6.0 6.0 0.00 0.00 0.00 82 1018.2
20260505222030 45 112 3.0 3.0 0.00 0.00 0.00 83 1018.2
20260505221511 45 90 4.0 4.0 0.00 0.00 0.00 82 1018.2
20260505220952 45 90 5.0 5.0 0.00 0.00 0.00 82 1018.1
20260505220432 45 112 4.0 4.0 0.00 0.00 0.00 82 1018.1
20260505215913 45 112 4.0 5.0 0.00 0.00 0.00 83 1018.0
20260505215119 45 90 3.0 4.0 0.00 0.00 0.00 83 1018.0
20260505214600 45 90 3.0 3.0 0.00 0.00 0.00 83 1018.0
20260505214040 45 112 7.0 7.0 0.00 0.00 0.00 82 1018.1
20260505213521 45 112 6.0 7.0 0.00 0.00 0.00 81 1018.1
20260505213002 45 68 6.0 7.0 0.00 0.00 0.00 81 1018.1
20260505212443 45 90 4.0 4.0 0.00 0.00 0.00 82 1018.1
20260505211924 45 112 2.0 2.0 0.00 0.00 0.00 83 1018.1
20260505211404 45 112 5.0 5.0 0.00 0.00 0.00 83 1018.0
20260505210845 45 112 6.0 7.0 0.00 0.00 0.00 83 1018.0
20260505210326 45 112 8.0 9.0 0.00 0.00 0.00 83 1018.0
20260505205807 45 68 3.0 3.0 0.00 0.00 0.00 83 1018.0
20260505205247 45 90 8.0 8.0 0.00 0.00 0.00 83 1018.0
20260505204452 45 68 6.0 6.0 0.00 0.00 0.00 83 1018.0
20260505203933 45 90 9.0 9.0 0.00 0.00 0.00 84 1018.0
20260505203139 45 68 5.0 6.0 0.00 0.00 0.00 83 1018.0
20260505202619 45 112 6.0 6.0 0.00 0.00 0.00 82 1018.0
20260505202100 45 68 2.0 2.0 0.00 0.00 0.00 82 1018.0
20260505201541 45 112 5.0 5.0 0.00 0.00 0.00 82 1017.9
20260505201021 45 68 2.0 2.0 0.00 0.00 0.00 82 1017.8
20260505200502 46 90 8.0 8.0 0.00 0.00 0.00 82 1017.9
20260505195709 46 90 5.0 6.0 0.00 0.00 0.00 82 1017.8
20260505195149 46 135 6.0 6.0 0.00 0.00 0.00 82 1017.8
20260505194356 46 90 4.0 4.0 0.00 0.00 0.00 82 1017.7
20260505193837 46 68 7.0 8.0 0.00 0.00 0.00 82 1017.7
20260505193042 46 112 5.0 5.0 0.00 0.00 0.00 82 1017.6
20260505192523 46 112 5.0 5.0 0.00 0.00 0.00 82 1017.6
20260505192004 46 90 6.0 6.0 0.00 0.00 0.00 82 1017.6
20260505191444 46 112 2.0 2.0 0.00 0.00 0.00 82 1017.6
20260505190925 46 68 6.0 6.0 0.00 0.00 0.00 81 1017.5
20260505190406 46 112 5.0 5.0 0.00 0.00 0.00 81 1017.5
20260505185339 46 90 5.0 5.0 0.00 0.00 0.00 81 1017.4
20260505184820 46 112 6.0 6.0 0.00 0.00 0.00 81 1017.4
20260505184301 46 90 4.0 5.0 0.00 0.00 0.00 81 1017.4
20260505183742 46 45 8.0 10.0 0.00 0.00 0.00 81 1017.3
20260505183223 47 112 9.0 10.0 0.00 0.00 0.00 81 1017.3
20260505182704 47 112 7.0 8.0 0.00 0.00 0.00 81 1017.3
20260505182145 47 90 9.0 10.0 0.00 0.00 0.00 81 1017.1
20260505181351 47 68 8.0 10.0 0.00 0.00 0.00 83 1017.1
20260505180832 47 68 6.0 6.0 0.00 0.00 0.00 83 1017.1
20260505180313 47 90 6.0 6.0 0.00 0.00 0.00 82 1017.1
20260505175519 47 68 8.0 8.0 0.00 0.00 0.00 83 1017.1
20260505175001 48 68 6.0 6.0 0.00 0.00 0.00 83 1017.0
20260505174442 48 112 8.0 8.0 0.00 0.00 0.00 83 1017.0
20260505173922 48 68 5.0 5.0 0.00 0.00 0.00 82 1017.0
20260505173403 48 112 8.0 9.0 0.00 0.00 0.00 82 1017.1
20260505172844 48 68 6.0 7.0 0.00 0.00 0.00 82 1017.0
20260505172325 48 45 5.0 5.0 0.00 0.00 0.00 82 1017.0
20260505171805 49 112 9.0 10.0 0.00 0.00 0.00 81 1017.0
20260505171246 49 112 9.0 11.0 0.00 0.00 0.00 82 1017.1
20260505170453 49 68 9.0 10.0 0.00 0.00 0.00 81 1017.0
20260505165933 50 112 7.0 7.0 0.00 0.00 0.00 80 1016.9
20260505165140 50 68 6.0 6.0 0.00 0.00 0.00 80 1016.9
20260505164346 50 90 6.0 6.0 0.00 0.00 0.00 80 1016.8
20260505163825 50 68 8.0 8.0 0.00 0.00 0.00 80 1016.8
20260505163306 50 90 5.0 6.0 0.00 0.00 0.00 81 1016.7
20260505162511 50 112 5.0 5.0 0.00 0.00 0.00 81 1016.7
20260505161952 51 68 6.0 6.0 0.00 0.00 0.00 80 1016.7
20260505161432 51 112 6.0 6.0 0.00 0.00 0.00 80 1016.6
20260505160913 51 112 6.0 6.0 0.00 0.00 0.00 80 1016.6
20260505160354 51 112 5.0 5.0 0.00 0.00 0.00 80 1016.6
20260505153158 51 90 6.0 6.0 0.00 0.00 0.00 80 1016.5
20260505152639 51 90 8.0 8.0 0.00 0.00 0.00 79 1016.6
20260505152119 51 68 7.0 7.0 0.00 0.00 0.00 80 1016.6
20260505151600 51 90 5.0 5.0 0.00 0.00 0.00 81 1016.6
20260505150937 51 90 5.0 5.0 0.00 0.00 0.00 82 1016.5
20260505150418 51 68 7.0 8.0 0.00 0.00 0.00 82 1016.4
20260505124912 55 270 2.0 2.0 0.00 0.00 0.00 68 1015.9
20260505124353 56 292 2.0 2.0 0.00 0.00 0.00 68 1016.0
20260505123834 55 270 1.0 1.0 0.00 0.00 0.00 64 1016.0
20260505123041 54 270 0.0 0.0 0.00 0.00 0.00 66 1016.0
20260505122523 53 270 6.0 6.0 0.00 0.00 0.00 69 1016.1
20260505122004 53 292 2.0 2.0 0.00 0.00 0.00 71 1016.1
20260505121445 54 338 5.0 6.0 0.00 0.00 0.00 71 1016.2
20260505120653 54 248 2.0 2.0 0.00 0.00 0.00 68 1016.2
20260505120134 54 315 2.0 2.0 0.00 0.00 0.00 68 1016.1
20260505115615 54 248 6.0 6.0 0.00 0.00 0.00 69 1016.2
20260505115056 54 338 5.0 5.0 0.00 0.00 0.00 67 1016.2
20260505114538 54 225 4.0 5.0 0.00 0.00 0.00 69 1016.2
20260505114019 54 292 3.0 3.0 0.00 0.00 0.00 70 1016.2
20260505113500 53 180 0.0 0.0 0.00 0.00 0.00 67 1016.2
20260505112941 53 315 4.0 5.0 0.00 0.00 0.00 70 1016.3
20260505112423 52 292 2.0 2.0 0.00 0.00 0.00 71 1016.2
20260505111904 52 292 4.0 4.0 0.00 0.00 0.00 73 1016.3
20260505111345 52 338 2.0 2.0 0.00 0.00 0.00 75 1016.3
20260505110826 52 292 1.0 1.0 0.00 0.00 0.00 74 1016.3
20260505110307 52 292 2.0 2.0 0.00 0.00 0.00 73 1016.3
20260505101812 51 292 3.0 3.0 0.00 0.00 0.00 77 1016.5
20260505101253 51 292 2.0 2.0 0.00 0.00 0.00 76 1016.5
20260505100735 51 270 2.0 2.0 0.00 0.00 0.00 76 1016.5
20260505100216 51 292 2.0 5.0 0.00 0.00 0.00 76 1016.5
20260505095657 51 315 3.0 3.0 0.00 0.00 0.00 77 1016.4
20260505095139 51 292 6.0 6.0 0.00 0.00 0.00 77 1016.4
20260505094620 51 270 3.0 3.0 0.00 0.00 0.00 77 1016.5
20260505093554 51 292 6.0 6.0 0.00 0.00 0.00 76 1016.5
20260505093035 51 292 6.0 6.0 0.00 0.00 0.00 78 1016.5
20260505092517 51 338 5.0 5.0 0.00 0.00 0.00 79 1016.5
20260505091958 51 292 4.0 4.0 0.00 0.00 0.00 81 1016.5
20260505091440 50 270 6.0 6.0 0.00 0.00 0.00 82 1016.5
20260505090647 50 292 2.0 2.0 0.00 0.00 0.00 83 1016.6
20260505090129 50 248 5.0 5.0 0.00 0.00 0.00 83 1016.6
20260505085610 49 225 5.0 5.0 0.00 0.00 0.00 84 1016.6
20260505085051 49 270 4.0 4.0 0.00 0.00 0.00 85 1016.6
20260505084526 50 292 5.0 5.0 0.00 0.00 0.00 85 1016.6
20260505084007 50 270 2.0 2.0 0.00 0.00 0.00 84 1016.5
20260505083215 50 292 4.0 5.0 0.00 0.00 0.00 83 1016.6
20260505082656 50 270 3.0 3.0 0.00 0.00 0.00 84 1016.6
20260505082138 50 292 2.0 2.0 0.00 0.00 0.00 84 1016.7
20260505081619 49 292 4.0 4.0 0.00 0.00 0.00 84 1016.6
20260505080554 49 270 2.0 2.0 0.00 0.00 0.00 83 1016.6
20260505080035 49 248 6.0 6.0 0.00 0.00 0.00 84 1016.6
20260505075517 49 292 2.0 2.0 0.00 0.00 0.00 84 1016.6
20260505074958 49 338 4.0 4.0 0.00 0.00 0.00 85 1016.6
20260505074439 49 292 6.0 6.0 0.00 0.00 0.00 86 1016.5
20260505073412 48 225 5.0 5.0 0.00 0.00 0.00 86 1016.6
20260505072854 48 292 0.0 0.0 0.00 0.00 0.00 86 1016.6
20260505072335 48 292 0.0 0.0 0.00 0.00 0.00 87 1016.6
20260505071817 47 292 0.0 0.0 0.00 0.00 0.00 88 1016.6
20260505071258 46 292 0.0 0.0 0.00 0.00 0.00 89 1016.8
20260505070739 46 292 0.0 0.0 0.00 0.00 0.00 90 1016.8
20260505070221 46 292 0.0 0.0 0.00 0.00 0.00 90 1016.8
20260505065702 45 292 0.0 0.0 0.00 0.00 0.00 93 1016.9
20260505065143 44 292 0.0 0.0 0.00 0.00 0.00 93 1017.0
20260505064625 43 292 0.0 0.0 0.00 0.00 0.00 94 1017.0
20260505064106 42 292 0.0 0.0 0.00 0.00 0.00 94 1017.0
20260505063548 42 292 0.0 0.0 0.00 0.00 0.00 94 1017.0
20260505063029 41 292 0.0 0.0 0.00 0.00 0.00 94 1017.0
20260505062511 41 292 0.0 0.0 0.00 0.00 0.00 95 1017.0
20260505061953 40 292 0.0 0.0 0.00 0.00 0.00 95 1017.0
20260505061434 40 292 0.0 0.0 0.00 0.00 0.00 95 1016.9
20260505060641 41 292 0.0 0.0 0.00 0.00 0.00 95 1016.9
20260505060123 40 292 0.0 0.0 0.00 0.00 0.00 95 1016.8
20260505055604 40 292 0.0 0.0 0.00 0.00 0.00 95 1016.9
20260505055046 39 292 0.0 0.0 0.00 0.00 0.00 95 1016.9
20260505054527 39 292 0.0 0.0 0.00 0.00 0.00 96 1016.8
20260505054008 39 292 0.0 0.0 0.00 0.00 0.00 96 1016.8
20260505053450 39 292 0.0 0.0 0.00 0.00 0.00 96 1016.8
20260505052931 38 292 0.0 0.0 0.00 0.00 0.00 96 1016.8
20260505052413 38 292 0.0 0.0 0.00 0.00 0.00 97 1016.8
20260505051854 37 292 0.0 0.0 0.00 0.00 0.00 96 1016.7
20260505051101 37 292 0.0 0.0 0.00 0.00 0.00 96 1016.7
20260505050543 37 292 0.0 0.0 0.00 0.00 0.00 96 1016.7
20260505041756 36 292 0.0 0.0 0.00 0.00 0.00 96 1016.3
20260505041237 36 292 0.0 0.0 0.00 0.00 0.00 96 1016.3
20260505040719 36 292 0.0 0.0 0.00 0.00 0.00 95 1016.3
20260505040200 37 292 0.0 0.0 0.00 0.00 0.00 96 1016.2
20260505035642 37 292 0.0 0.0 0.00 0.00 0.00 95 1016.2
20260505035123 37 292 0.0 0.0 0.00 0.00 0.00 95 1016.3
20260505034605 37 292 0.0 0.0 0.00 0.00 0.00 95 1016.2
20260505034046 37 292 0.0 0.0 0.00 0.00 0.00 95 1016.2
20260505033528 37 292 0.0 0.0 0.00 0.00 0.00 95 1016.3
20260505033010 38 292 0.0 0.0 0.00 0.00 0.00 95 1016.3
20260505032451 37 292 0.0 0.0 0.00 0.00 0.00 95 1016.3
20260505031933 38 292 0.0 0.0 0.00 0.00 0.00 95 1016.3
20260505031414 38 292 0.0 0.0 0.00 0.00 0.00 95 1016.3
20260505030856 38 292 0.0 0.0 0.00 0.00 0.00 95 1016.4
20260505030338 37 292 0.0 0.0 0.00 0.00 0.00 95 1016.4
20260505025545 37 292 0.0 0.0 0.00 0.00 0.00 94 1016.4
20260505025027 37 292 0.0 0.0 0.00 0.00 0.00 94 1016.4
20260505024508 38 292 0.0 0.0 0.00 0.00 0.00 94 1016.4
20260505023950 38 292 0.0 0.0 0.00 0.00 0.00 94 1016.5
20260505023432 37 292 0.0 0.0 0.00 0.00 0.00 94 1016.5
20260505022913 37 292 0.0 0.0 0.00 0.00 0.00 93 1016.5
20260505022355 37 292 0.0 0.0 0.00 0.00 0.00 93 1016.4
20260505021837 38 292 0.0 0.0 0.00 0.00 0.00 93 1016.4
20260505021319 39 292 0.0 0.0 0.00 0.00 0.00 93 1016.4
20260505020526 39 292 0.0 0.0 0.00 0.00 0.00 93 1016.4
20260505020008 40 292 0.0 0.0 0.00 0.00 0.00 93 1016.4
20260505015449 40 292 0.0 0.0 0.00 0.00 0.00 93 1016.5
20260505014931 40 292 0.0 0.0 0.00 0.00 0.00 93 1016.5
20260505014412 40 292 0.0 0.0 0.00 0.00 0.00 93 1016.6